Date String (YYYY-MM-DD hh:mm:ss) UTC,Instrument flags,absolute air pressure of the measurement (hPa),sample flow rate (lpm),inlet stack bypass flow (lpm),air temperature of the measurement (°C),ambient temperature measured by the external sensor (°C),aerosol sample conditioner tube jacket temperature (°C),OPC LED temperature (°C),internal box temperature (°C),relative humidity of the measurement (%),span deviation,mass concentration of particles derived from Lorenz-Mie calculation of OPC scattering (μg/m³),mass concentration of particles derived from Lorenz-Mie calculation of OPC scattering (μg/m³),mass concentration of particles derived from Lorenz-Mie calculation of OPC scattering (μg/m³)
DateTimeUTC,F1_M11,P_M11,Q1_M11,Q2_M11,T1_M11,T2_M11,T3_M11,T4_M11,T5_M11,U1_M11,ZSPAN_M11,X2_M11,X0_M11,X1_M11
2023-11-10 10:00:00,SystemResetWarning,0831.7,5.00,000.00,021.3,020.4,000.0,029.7,022.7,12.0,0000.0,0004.07,0012.15,0003.45
2023-11-10 10:01:00,SystemResetWarning,0831.7,5.00,000.00,021.3,020.4,000.0,029.7,022.7,12.0,0000.0,0004.14,0012.35,0003.45
2023-11-10 10:02:00,SystemResetWarning,0831.7,5.00,000.00,021.3,020.3,000.0,029.7,022.7,12.1,0000.0,0004.15,0011.78,0003.45
2023-11-10 10:03:00,SystemResetWarning,0831.7,5.01,000.00,021.3,020.3,000.0,029.7,022.7,12.0,0000.0,0004.13,0011.38,0003.44
2023-11-10 10:04:00,SystemResetWarning,0831.7,5.00,000.00,021.3,020.3,000.0,029.7,022.7,12.1,0000.0,0004.15,0011.00,0003.45
2023-11-10 10:05:00,SystemResetWarning,0831.8,5.00,000.00,021.3,020.3,000.0,029.7,022.7,12.3,0000.0,0004.18,0011.21,0003.48
2023-11-10 10:06:00,SystemResetWarning,0831.8,5.00,000.00,021.3,020.3,000.0,029.7,022.7,12.4,0000.0,0004.21,0010.77,0003.50
2023-11-10 10:07:00,SystemResetWarning,0831.7,5.00,000.00,021.3,020.3,000.0,029.7,022.7,12.5,0000.0,0004.19,0010.58,0003.51
2023-11-10 10:08:00,SystemResetWarning,0831.7,5.00,000.00,021.3,020.3,000.0,029.7,022.7,12.5,0000.0,0004.21,0010.07,0003.54
2023-11-10 10:09:00,SystemResetWarning,0831.7,5.01,000.00,021.3,020.3,000.0,029.7,022.7,12.5,0000.0,0004.23,0009.68,0003.59
2023-11-10 10:10:00,SystemResetWarning,0831.7,5.00,000.00,021.3,020.3,000.0,029.7,022.7,12.5,0000.0,0004.24,0009.68,0003.64
2023-11-10 10:11:00,SystemResetWarning,0831.7,5.00,000.00,021.3,020.3,000.0,029.7,022.7,12.5,0000.0,0004.31,0009.79,0003.69
2023-11-10 10:12:00,SystemResetWarning,0831.7,5.00,000.00,021.3,020.3,000.0,029.7,022.6,12.5,0000.0,0004.32,0009.50,0003.73
2023-11-10 10:13:00,SystemResetWarning,0831.8,4.98,000.00,021.3,020.3,000.0,029.7,022.6,12.5,0000.0,0004.36,0009.53,0003.78
2023-11-10 10:14:00,SystemResetWarning,0832.3,5.00,000.00,021.3,020.3,000.0,029.7,022.6,12.5,0000.0,0004.41,0009.96,0003.83
2023-11-10 10:15:00,SystemResetWarning,0832.1,5.01,000.00,021.3,020.3,000.0,029.7,022.6,12.5,0000.0,0004.43,0009.71,0003.87
2023-11-10 10:16:00,SystemResetWarning,0832.1,5.00,000.00,021.2,020.3,000.0,029.7,022.6,12.5,0000.0,0004.46,0009.67,0003.91
2023-11-10 10:17:00,SystemResetWarning,0832.3,5.00,000.00,021.2,020.3,000.0,029.7,022.6,12.5,0000.0,0004.49,0009.60,0003.93
2023-11-10 10:18:00,SystemResetWarning,0832.2,5.00,000.00,021.2,020.2,000.0,029.7,022.6,12.5,0000.0,0004.55,0009.38,0003.98
2023-11-10 10:19:00,SystemResetWarning,0832.4,4.99,000.00,021.2,020.2,000.0,029.7,022.5,12.5,0000.0,0004.60,0009.41,0004.02
2023-11-10 10:20:00,SystemResetWarning,0832.1,4.99,000.00,021.2,020.2,000.0,029.7,022.5,12.5,0000.0,0004.61,0009.46,0004.03
2023-11-10 10:21:00,SystemResetWarning,0831.8,5.01,000.00,021.2,020.1,000.0,029.6,022.5,12.6,0000.0,0004.64,0009.33,0004.03
2023-11-10 10:22:00,SystemResetWarning,0831.7,5.01,000.00,021.2,020.1,000.0,029.6,022.5,12.6,0000.0,0004.63,0008.86,0004.03
2023-11-10 10:23:00,SystemResetWarning,0831.7,5.01,000.00,021.2,020.1,000.0,029.6,022.5,12.6,0000.0,0004.65,0008.95,0004.04
2023-11-10 10:24:00,SystemResetWarning,0831.8,5.00,000.00,021.2,020.1,000.0,029.6,022.5,12.6,0000.0,0004.66,0009.40,0004.04
2023-11-10 10:25:00,SystemResetWarning,0832.2,4.99,000.00,021.2,020.1,000.0,029.6,022.5,12.6,0000.0,0004.68,0009.39,0004.04
2023-11-10 10:26:00,SystemResetWarning,0832.2,4.99,000.00,021.2,020.1,000.0,029.6,022.6,12.6,0000.0,0004.70,0009.46,0004.03
2023-11-10 10:27:00,SystemResetWarning,0831.9,5.00,000.00,021.2,020.1,000.0,029.6,022.6,12.5,0000.0,0004.73,0009.38,0004.03
2023-11-10 10:28:00,SystemResetWarning,0831.8,5.01,000.00,021.2,020.1,000.0,029.6,022.6,12.5,0000.0,0004.75,0009.25,0004.02
2023-11-10 10:29:00,SystemResetWarning,0831.9,5.01,000.00,021.2,020.1,000.0,029.6,022.5,12.5,0000.0,0004.79,0009.31,0004.02
2023-11-10 10:30:00,SystemResetWarning,0831.7,5.00,000.00,021.2,020.1,000.0,029.6,022.5,12.5,0000.0,0004.80,0009.37,0004.01
2023-11-10 10:31:00,SystemResetWarning,0831.7,5.00,000.00,021.2,020.2,000.0,029.6,022.5,12.6,0000.0,0004.79,0009.63,0004.00
2023-11-10 10:32:00,SystemResetWarning,0831.7,5.00,000.00,021.2,020.2,000.0,029.6,022.5,12.6,0000.0,0004.79,0009.58,0004.00
2023-11-10 10:33:00,SystemResetWarning,0831.7,5.00,000.00,021.2,020.2,000.0,029.6,022.6,12.6,0000.0,0004.79,0009.55,0004.00
2023-11-10 10:34:00,SystemResetWarning,0831.7,5.00,000.00,021.2,020.2,000.0,029.6,022.6,12.6,0000.0,0004.79,0010.14,0003.99
2023-11-10 10:35:00,SystemResetWarning,0831.7,5.00,000.00,021.2,020.2,000.0,029.6,022.6,12.6,0000.0,0004.75,0009.68,0003.97
2023-11-10 10:36:00,SystemResetWarning,0831.7,5.00,000.00,021.2,020.2,000.0,029.6,022.6,12.6,0000.0,0004.71,0009.28,0003.97
2023-11-10 10:37:00,SystemResetWarning,0831.7,5.00,000.00,021.2,020.3,000.0,029.6,022.6,12.6,0000.0,0004.69,0009.22,0003.96
2023-11-10 10:38:00,SystemResetWarning,0832.1,4.99,000.00,021.2,020.3,000.0,029.6,022.6,12.6,0000.0,0004.66,0009.47,0003.96
2023-11-10 10:39:00,SystemResetWarning,0832.0,5.00,000.00,021.2,020.3,000.0,029.6,022.6,12.6,0000.0,0004.67,0010.11,0003.96
2023-11-10 10:40:00,SystemResetWarning,0832.2,4.99,000.00,021.2,020.3,000.0,029.6,022.6,12.6,0000.0,0004.65,0010.38,0003.95
2023-11-10 10:41:00,SystemResetWarning,0832.0,5.00,000.00,021.2,020.3,000.0,029.6,022.6,12.6,0000.0,0004.61,0010.47,0003.94
2023-11-10 10:42:00,SystemResetWarning,0832.1,5.00,000.00,021.2,020.3,000.0,029.6,022.6,12.6,0000.0,0004.63,0010.18,0003.94
2023-11-10 10:43:00,SystemResetWarning,0832.1,5.00,000.00,021.2,020.3,000.0,029.6,022.6,12.6,0000.0,0004.63,0010.40,0003.95
2023-11-10 10:44:00,SystemResetWarning,0831.8,5.00,000.00,021.2,020.3,000.0,029.6,022.6,12.6,0000.0,0004.63,0010.77,0003.95
2023-11-10 10:45:00,SystemResetWarning,0832.0,5.01,000.00,021.2,020.3,000.0,029.6,022.6,12.6,0000.0,0004.61,0010.06,0003.95
2023-11-10 10:46:00,SystemResetWarning,0831.9,5.00,000.00,021.2,020.3,000.0,029.6,022.6,12.6,0000.0,0004.61,0010.28,0003.95
2023-11-10 10:47:00,SystemResetWarning,0831.8,5.00,000.00,021.2,020.3,000.0,029.6,022.6,12.6,0000.0,0004.67,0010.94,0003.98
2023-11-10 10:48:00,SystemResetWarning,0831.8,5.00,000.00,021.2,020.3,000.0,029.6,022.6,12.6,0000.0,0004.71,0011.44,0003.99
2023-11-10 10:49:00,SystemResetWarning,0832.1,5.00,000.00,021.2,020.3,000.0,029.6,022.6,12.6,0000.0,0004.74,0012.01,0004.00
2023-11-10 10:50:00,SystemResetWarning,0832.3,4.99,000.00,021.2,020.3,000.0,029.6,022.6,12.6,0000.0,0004.77,0011.95,0004.00
2023-11-10 10:51:00,SystemResetWarning,0832.1,5.00,000.00,021.2,020.3,000.0,029.6,022.6,12.6,0000.0,0004.75,0012.23,0004.01
2023-11-10 10:52:00,SystemResetWarning,0832.0,5.01,000.00,021.2,020.3,000.0,029.6,022.6,12.6,0000.0,0004.80,0012.05,0004.03
2023-11-10 10:53:00,SystemResetWarning,0832.1,5.00,000.00,021.2,020.2,000.0,029.6,022.5,12.6,0000.0,0004.79,0012.64,0004.03
2023-11-10 10:54:00,SystemResetWarning,0832.3,5.00,000.00,021.2,020.2,000.0,029.6,022.5,12.6,0000.0,0004.77,0013.10,0004.02
2023-11-10 10:55:00,SystemResetWarning,0832.3,5.00,000.00,021.1,020.2,000.0,029.5,022.5,12.6,0000.0,0004.78,0013.18,0004.02
2023-11-10 10:56:00,SystemResetWarning,0832.2,5.01,000.00,021.1,020.2,000.0,029.5,022.5,12.6,0000.0,0004.80,0013.23,0004.02
2023-11-10 10:57:00,SystemResetWarning,0832.3,5.00,000.00,021.1,020.2,000.0,029.5,022.5,12.6,0000.0,0004.80,0013.04,0004.04
2023-11-10 10:58:00,SystemResetWarning,0832.3,4.99,000.00,021.1,020.2,000.0,029.5,022.4,12.6,0000.0,0004.81,0012.66,0004.04
2023-11-10 10:59:00,SystemResetWarning,0832.2,4.99,000.00,021.1,020.2,000.0,029.5,022.5,12.6,0000.0,0004.82,0012.40,0004.05
